Showing default

TRANSIT 4A, 116

Orbit data source: Space-Track

TRANSIT 4A, 116 is a payload satellite owned by USN BuWeps (US) in LEO that was launched on Thu, 29 Jun 1961 UTC via a THOR ABLESTAR launch vehicle from the Air Force Eastern Test Range (AFETR). Payload-class satellites include a variety of spacecraft equipped with specific instruments for various scientific and technological missions. These include communications satellites like Starlink; space stations such as the ISS; scientific satellites like the Hubble; Earth observation satellites from companies like Planet Labs, Umbra, and HawkEye 360; GPS; miniature CubeSats for education and research; and military/defense satellites.

Loading next visibility...
Identifier
116, 1961-015A
Orbit
LEO
Country
Flag of USUS
Related business
Manufacturer
APL
Mission
Spacecraft
Bus & Motor
TRANSIT 4, Unknown motor
Mass
78 kg wet, 78 kg dry
Launch date (UTC)
1961-06-29 (64 years ago)
Launch vehicle
THOR ABLESTAR
Launch site
Air Force Eastern Test Range (AFETR)
Object type
Payload
Rocket body
Debris
Shape & HBR
Unknown
Radar Cross Section
Medium (>0.1 m² and <1 m²)

Expand to show TLE details & history
Last TLE update: 21 hours ago

TLE from 21 hours ago
0 TRANSIT 4A
1   116U 61015A   25312.72866889  .00000104  00000-0  13804-3 0  9992
2   116  66.8099  70.2580 0069026  65.7323 295.0947 13.92278131266017
Epoch: 2025-11-08T17:29Z
TLE epoch observation values (Epoch: 2025-11-08T17:29:16.992Z)
Latitude
-0°
Longitude
119.78309°
Altitude
901.653 km
Speed
7.412 km/s
True Right ascension
04h 41m 01s
True Declination
0° 00' 00"
Sunlit
Object was in full shadow at epoch
Visualization orbit readout
Latitude
Unknown
Longitude
Unknown
Altitude
Unknown
Speed
Unknown
Apparent Right ascension
Unknown
Apparent Declination
Unknown
Sunlit
N/A
Visualization observer readout
Local Sidereal Time
10:25:05
Azimuth
Unknown
Elevation
Unknown
Doppler factor
Unknown
Orbital elements
Apogee altitude
969.419 km
Perigee altitude
868.68 km
Semi-major axis
7,297.186 km
Eccentricity
0.0069
Inclination
66.8099°
RAAN
70.258°
Arg. of periapsis
65.7323°
True anomaly
294.37577°
Mean anomaly
295.0947°
Eccentric anomaly
294.7355°
Mean motion
3.48185 °/min
Orbital period
103.39 mins
BSTAR
0.00013804

Documentation

Showing up to 5 results
|